ECMWFFLT1_850_spd_000.txt.gz
Wind_Speed
21 19 17 16 16 16 15 14 14 14 14 14 14 14 14 15 15 17 18 19 19 19 20 20 21 23 23 23 24 27 30 31 27 24 25 28 30 27 24 23 25 31 41 45 39 31 29 28 29 30 31 31 32 31 29 28 28 28 28 29 30 29 28
21 19 17 16 16 16 15 14 14 14 15 15 15 15 15 16 17 18 19 20 20 20 21 21 23 25 25 23 24 29 31 30 27 26 28 29 29 27 25 23 25 29 35 41 40 32 27 26 24 25 27 27 29 31 30 30 30 29 29 30 30 30 30
21 20 18 17 16 16 15 14 14 15 15 15 16 16 16 17 18 19 20 22 23 23 22 22 24 25 24 23 26 31 32 30 29 27 28 30 28 27 27 26 25 27 32 38 39 34 29 27 26 25 26 26 27 29 31 32 32 30 30 30 30 30 31
22 21 19 17 17 16 15 15 14 15 16 16 16 17 17 17 18 20 22 25 26 25 23 23 24 24 24 26 30 33 32 30 29 28 29 31 29 27 27 28 27 29 32 36 40 40 34 29 28 28 26 26 27 27 29 31 31 30 30 30 29 29 30
23 22 20 18 17 16 16 15 15 15 16 16 16 17 17 17 18 20 23 25 25 25 24 23 22 23 25 29 32 33 32 30 29 28 29 30 30 28 27 29 30 32 33 35 40 45 42 34 31 31 28 26 26 27 28 29 29 29 29 28 28 29 29
24 23 20 19 18 17 16 15 15 15 16 16 16 17 17 18 19 20 22 23 24 24 23 22 22 25 27 30 32 32 30 29 28 27 29 30 30 28 28 30 32 33 35 38 41 43 42 38 34 32 29 25 24 27 29 29 30 29 28 28 28 28 27
25 24 21 20 19 18 17 16 16 16 16 16 16 16 18 18 19 20 21 23 23 22 21 21 23 27 29 29 29 29 28 27 27 27 29 29 28 28 29 31 33 35 36 39 40 40 41 40 35 31 29 26 25 29 30 29 30 30 28 26 26 26 25
26 24 22 21 20 19 18 17 17 16 16 16 16 17 17 18 19 20 21 21 20 18 19 22 25 27 27 27 26 26 26 26 26 27 28 28 27 28 30 31 33 36 38 38 39 40 39 37 34 30 28 26 27 29 28 26 27 28 26 24 23 23 22
27 25 24 22 20 19 19 18 17 16 16 16 17 17 17 18 20 20 20 19 18 18 20 23 25 25 24 24 24 24 24 23 23 26 27 28 28 28 30 33 34 35 37 37 38 38 37 34 33 30 28 26 26 27 26 25 25 27 26 24 24 23 22
27 26 24 22 21 20 19 19 18 16 16 17 17 17 17 18 20 20 19 17 17 19 22 23 23 23 24 23 23 23 23 22 23 25 26 27 28 28 29 32 33 34 36 38 38 38 36 34 34 31 27 26 26 25 25 25 26 27 26 24 24 24 22
28 27 25 23 21 20 19 18 18 16 16 17 17 17 17 18 19 20 18 17 18 21 23 23 23 23 23 23 23 23 22 22 24 25 27 27 27 27 27 29 32 35 36 35 36 36 33 32 33 31 28 27 26 25 25 25 25 26 25 22 21 22 21
29 27 25 23 22 21 19 18 17 17 17 17 17 17 18 18 18 19 18 17 19 21 22 22 22 23 23 23 23 22 22 23 25 26 27 27 26 28 28 29 32 33 32 31 33 35 34 33 34 34 32 30 27 24 23 23 25 26 24 21 21 21 21
29 27 26 24 22 21 19 18 17 17 17 17 17 17 18 18 19 19 19 19 20 20 20 21 22 23 23 22 22 22 22 23 26 27 27 26 26 29 30 31 32 30 27 27 29 33 35 34 33 34 33 29 26 25 24 24 24 25 24 22 21 21 21
29 28 27 25 23 21 19 18 17 17 18 18 17 17 18 19 19 20 20 20 20 19 19 20 21 23 23 22 22 22 22 23 26 27 27 27 28 29 29 30 30 29 28 26 26 31 35 34 31 31 30 27 24 24 28 29 27 25 24 24 22 22 22
30 29 28 26 23 21 19 18 17 18 18 18 17 17 18 19 19 20 20 20 19 19 19 19 20 22 22 21 21 22 23 24 25 26 27 28 29 28 28 28 28 28 28 26 26 30 32 30 28 28 29 26 22 21 25 29 29 27 27 28 28 27 27
32 30 28 27 24 21 19 18 18 18 18 18 17 17 18 19 19 20 20 19 19 19 18 18 19 20 20 20 20 21 23 23 23 25 27 28 29 28 28 27 26 26 24 22 24 25 25 25 25 26 26 25 23 23 23 23 25 26 26 29 32 31 30
32 30 29 28 25 22 20 19 18 18 18 18 17 18 19 18 18 19 20 19 19 18 18 17 17 17 18 19 19 20 22 21 21 24 27 27 28 29 28 27 25 24 21 19 20 20 20 21 23 25 27 27 27 28 25 22 24 22 20 23 28 31 29
31 31 30 29 26 22 21 19 18 18 18 18 17 18 19 18 18 19 19 19 18 18 16 15 15 15 17 18 18 19 21 21 21 24 26 26 28 29 29 27 27 25 22 20 19 18 18 20 20 21 25 27 26 26 28 30 30 25 19 18 22 26 25
31 31 30 29 26 24 22 20 18 18 18 18 18 18 19 18 18 18 19 18 18 16 15 15 14 14 15 16 17 18 20 20 21 23 25 25 27 29 29 27 27 26 25 24 23 22 23 24 23 21 21 21 21 19 23 31 35 33 27 21 20 19 17
31 31 30 29 28 25 23 21 19 18 18 18 17 18 18 19 18 18 18 18 17 16 15 14 14 14 15 16 16 18 19 20 21 22 23 24 25 27 29 28 26 24 23 24 25 25 26 26 24 23 21 17 16 16 17 24 31 36 35 31 27 23 21
32 32 31 30 29 27 24 21 19 18 18 18 17 17 18 19 19 18 17 17 16 15 14 13 13 14 15 16 16 17 19 20 21 20 21 22 22 24 26 26 25 23 21 22 24 25 26 27 25 24 24 19 13 13 15 17 23 30 36 38 37 33 32
33 32 32 31 30 28 25 22 20 19 19 18 17 17 17 18 18 17 17 17 16 14 13 13 13 14 15 16 16 17 19 21 21 20 20 20 19 21 23 23 22 21 20 21 23 25 25 27 27 26 26 23 15 11 12 15 17 22 28 36 39 39 38
35 34 34 33 32 29 25 23 21 19 18 17 17 16 16 17 18 18 17 16 15 14 13 13 13 14 15 15 16 17 20 21 21 20 20 19 18 18 20 20 19 18 18 20 22 23 25 27 27 27 27 24 19 12 9 11 14 16 18 24 31 34 35
37 37 36 34 33 30 26 24 22 19 18 17 17 16 15 16 17 18 17 15 14 14 13 12 13 13 14 15 15 17 19 20 20 19 19 18 17 16 17 17 16 16 17 18 21 23 24 26 27 27 27 25 22 15 9 7 8 10 11 13 16 19 22
39 38 37 35 34 30 27 25 22 20 18 17 17 16 15 15 17 18 17 15 13 13 12 11 11 12 13 13 14 16 18 19 17 16 16 16 14 14 15 15 14 15 16 17 20 22 24 25 26 27 27 25 22 16 10 6 4 4 3 3 4 6 9
39 39 38 36 35 31 28 26 23 20 19 18 17 16 15 15 16 17 16 14 13 12 11 10 10 11 11 12 13 15 17 16 14 13 13 13 12 12 13 13 14 15 16 18 20 22 23 24 25 26 27 25 24 21 17 12 8 5 3 2 2 3 5
40 41 40 38 37 32 28 26 25 22 19 19 17 16 15 15 15 15 15 13 11 10 9 8 8 9 9 11 12 14 14 12 10 10 11 11 11 11 12 13 14 15 17 18 20 21 22 23 24 25 26 27 27 26 25 22 17 13 10 6 4 5 6
40 42 42 40 38 33 29 28 27 23 19 18 17 16 15 14 13 14 14 12 10 9 8 6 6 7 8 9 10 10 10 9 9 10 10 11 11 11 11 12 13 13 15 17 19 20 21 22 24 25 27 28 29 29 29 28 25 22 20 16 12 10 9
37 40 41 40 38 34 30 28 25 21 18 16 15 14 14 12 11 13 13 11 9 8 6 5 5 5 6 7 7 7 7 7 8 9 10 10 10 11 12 13 13 14 16 18 20 20 21 23 24 26 27 28 29 30 30 30 29 29 28 26 23 20 18
34 36 38 38 35 32 29 25 20 17 16 15 14 14 13 11 11 12 12 10 8 6 5 4 3 2 4 4 5 6 7 8 10 11 12 12 13 13 15 16 16 17 18 20 21 21 22 23 25 26 28 29 30 30 30 29 29 30 30 30 29 27 25
31 33 35 35 33 30 27 24 20 18 17 16 15 14 13 11 11 12 11 10 8 6 5 4 1 2 3 3 5 7 8 10 13 15 15 16 16 17 17 18 18 19 20 21 22 22 23 24 26 27 29 30 30 30 29 28 28 29 30 31 31 31 30
28 31 34 35 32 29 26 23 22 20 19 17 16 15 13 12 12 12 11 10 8 7 6 5 3 4 4 4 6 8 10 12 15 17 18 19 19 19 20 21 21 21 22 23 24 24 24 25 27 28 29 29 30 30 30 29 29 29 29 31 32 32 32
25 28 31 33 33 31 27 23 22 21 20 18 17 15 13 13 13 12 12 11 9 9 8 7 6 6 6 6 8 9 11 14 16 18 20 20 21 22 22 22 22 22 23 24 25 25 26 28 28 29 30 30 31 31 31 31 31 30 30 31 32 32 32
23 25 28 30 31 31 28 25 23 21 20 19 18 16 15 15 15 14 13 12 11 11 10 9 9 9 8 8 9 9 11 14 16 18 19 20 21 21 22 22 23 23 25 26 26 26 28 29 30 31 32 33 33 34 34 33 33 32 31 31 31 31 31
23 25 27 28 28 28 27 26 24 22 20 19 18 17 17 17 16 16 14 13 13 13 12 11 11 11 10 9 9 10 11 13 15 17 18 19 19 20 21 22 23 24 25 26 27 27 28 30 31 32 34 34 35 36 36 36 36 34 32 31 31 30 30
24 25 26 27 27 27 26 25 24 22 21 21 20 19 18 17 17 16 15 15 15 14 14 13 13 13 12 10 10 9 9 11 13 14 16 17 17 18 20 22 22 23 24 25 26 27 28 30 31 32 33 34 35 36 36 37 37 36 35 33 31 30 30

ECMWFFLT1_850_spd_006.txt.gz
Wind_Speed
40 42 42 41 39 35 31 29 31 34 34 31 30 28 27 26 25 25 26 25 25 25 25 25 26 26 24 22 24 24 23 21 20 21 21 21 23 23 24 27 30 36 45 48 45 44 46 45 46 47 44 43 43 40 40 40 38 39 40 41 42 42 41
39 41 41 41 39 35 31 29 30 33 35 33 31 29 28 27 26 25 25 25 25 24 24 25 25 25 24 24 25 27 27 26 24 24 25 25 25 27 27 28 32 35 41 48 47 44 45 45 45 46 44 41 42 42 42 41 40 39 40 41 42 42 42
37 39 40 41 40 36 32 30 31 33 35 35 33 31 29 27 26 25 25 25 25 24 23 25 25 25 25 26 28 30 28 27 26 25 26 27 27 28 30 29 32 35 39 45 47 45 45 45 45 45 43 41 41 41 40 39 39 39 40 41 40 40 40
37 38 40 40 40 37 33 32 32 33 35 35 34 32 30 27 26 25 25 25 24 24 24 24 25 25 25 28 31 31 29 27 27 26 27 28 28 29 30 31 33 36 38 41 44 44 44 44 44 44 43 42 40 38 37 38 40 40 40 39 37 38 40
36 37 39 40 40 38 35 32 32 33 34 35 35 33 30 28 26 24 24 25 24 24 24 24 25 25 25 28 31 32 31 29 28 27 27 27 27 28 31 33 34 36 36 37 40 43 44 43 43 42 42 40 36 37 41 41 40 38 38 38 37 38 40
35 36 38 40 40 39 36 33 33 34 34 35 34 32 30 28 26 25 25 25 25 25 24 24 24 24 25 27 30 31 31 29 28 27 26 26 28 30 32 33 33 33 34 35 38 41 42 41 40 39 39 38 36 41 44 42 40 38 35 35 38 41 42
35 35 37 39 40 39 37 33 33 34 35 35 34 31 30 28 27 26 26 26 26 25 25 24 23 23 25 26 28 30 30 28 26 25 27 29 30 31 31 30 32 33 34 36 37 37 37 36 36 36 37 41 44 44 39 35 36 38 37 37 41 45 43
33 34 35 38 39 39 37 34 34 35 36 36 34 32 30 28 27 26 26 27 27 26 25 25 24 23 24 25 26 28 27 25 24 25 27 28 28 28 28 30 32 34 34 34 33 33 33 32 32 35 40 46 48 42 36 31 32 36 41 43 45 45 42
33 34 35 37 38 38 37 36 35 34 35 36 35 32 30 28 27 27 27 27 27 27 26 25 24 23 23 24 25 24 24 24 24 26 27 27 26 27 29 31 32 33 33 31 30 31 31 30 33 39 46 49 47 42 40 36 33 37 42 44 45 45 41
32 34 35 35 37 38 38 38 36 34 34 35 34 32 30 27 26 26 27 28 27 27 27 26 25 23 22 24 24 22 22 24 24 25 26 26 26 27 28 29 30 31 32 31 30 31 32 34 40 45 48 50 48 44 40 36 35 40 44 44 45 47 42
31 33 34 34 35 37 39 38 36 34 33 34 33 32 30 27 27 27 27 28 28 27 27 27 25 23 22 24 23 20 21 24 25 25 26 26 26 25 26 26 27 30 32 31 30 32 35 40 46 47 47 46 46 43 39 36 36 40 44 44 43 44 44
31 32 33 33 35 37 38 38 37 34 32 32 32 32 31 28 27 27 28 28 27 27 28 27 26 24 23 23 23 21 22 26 27 26 26 26 27 26 26 26 27 29 30 29 30 34 38 43 45 45 43 43 42 41 40 39 39 41 45 46 44 43 45
30 31 32 32 34 36 37 38 37 33 31 32 32 31 31 29 28 27 27 27 27 28 27 26 25 24 23 22 22 22 23 25 25 24 25 25 26 27 27 27 27 27 26 26 30 36 40 40 40 41 42 41 40 39 40 41 42 42 42 41 39 37 39
28 30 31 31 32 34 35 37 36 32 31 32 31 30 29 29 29 27 25 26 27 27 26 25 24 23 22 22 22 22 23 23 23 24 25 25 25 27 27 28 27 26 25 27 30 35 38 37 36 38 41 41 39 38 39 41 42 41 40 40 40 39 40
28 29 30 30 31 32 34 35 34 32 31 31 30 29 27 28 29 27 25 26 27 26 25 24 23 22 22 22 22 23 22 22 23 24 24 24 25 26 27 28 27 26 27 29 31 33 34 35 35 37 40 42 39 37 37 39 41 43 44 45 46 45 41
27 28 28 28 29 31 32 32 32 31 30 30 29 28 27 27 29 29 27 26 26 26 24 22 22 22 22 22 22 23 21 21 23 23 23 25 26 26 28 28 27 27 28 30 31 30 30 33 35 37 40 41 39 38 38 39 41 42 42 42 42 40 35
25 25 26 27 28 29 29 29 29 30 30 29 28 27 27 28 29 30 28 26 26 25 24 23 22 22 23 23 22 22 20 20 20 20 22 26 26 27 29 28 27 28 30 30 28 27 28 31 33 35 38 40 40 39 37 37 38 39 37 36 36 35 31
24 24 25 25 26 26 27 26 26 28 29 28 26 27 28 28 29 30 29 27 26 26 24 23 22 22 23 23 22 22 20 19 19 20 23 24 25 27 30 30 30 31 29 27 26 26 27 28 31 34 36 38 39 36 32 31 33 32 30 29 30 30 29
24 24 24 23 23 23 25 26 26 26 27 26 26 26 27 28 30 30 29 28 26 25 24 23 22 22 22 22 23 22 21 20 20 20 21 21 25 28 30 30 31 30 29 28 27 27 28 29 31 33 35 36 36 33 29 27 26 26 25 26 28 27 26
24 24 23 22 21 21 23 25 25 25 25 25 26 26 26 28 30 29 28 27 25 23 22 21 21 20 20 21 22 21 20 21 19 17 19 23 26 27 27 28 29 29 29 29 29 28 29 30 32 33 33 34 34 31 28 24 22 22 22 24 27 25 25
23 23 22 21 21 21 22 23 23 23 23 23 25 26 26 28 30 28 26 25 23 21 20 19 19 19 19 20 20 19 19 19 17 17 21 24 24 23 24 27 28 28 28 28 28 28 29 30 31 31 30 31 31 30 28 23 19 19 20 22 24 23 25
24 23 22 22 22 22 22 22 22 23 22 22 23 25 26 28 29 27 25 24 22 20 19 18 17 18 18 19 19 18 18 19 19 20 22 22 22 23 24 25 26 27 27 27 27 28 29 28 28 28 28 28 29 29 27 23 19 18 18 20 20 19 22
24 24 23 23 23 24 23 23 22 22 22 21 21 23 25 26 27 27 25 23 21 18 17 16 16 16 18 18 17 17 18 19 19 20 21 21 22 23 24 24 25 25 26 26 26 27 26 26 26 26 26 26 28 29 26 22 19 17 17 18 17 15 16
25 25 24 24 24 24 24 24 23 22 22 21 20 22 24 24 24 26 24 22 19 17 16 16 16 16 17 17 16 17 17 17 18 20 21 21 22 22 23 23 23 24 24 24 24 24 24 23 24 24 24 24 26 27 26 22 17 15 16 17 15 12 13
25 25 25 25 25 25 24 24 24 23 23 21 19 20 23 23 22 23 24 22 19 17 16 15 15 15 16 15 15 15 15 16 17 19 20 20 21 21 21 21 21 21 22 21 22 22 22 22 22 21 21 21 22 24 25 22 17 13 12 12 11 9 10
25 25 26 26 26 26 25 25 24 24 23 22 21 21 22 23 21 21 21 21 19 17 15 13 14 14 14 14 13 13 14 15 16 17 18 18 18 18 18 18 18 18 18 18 19 20 20 20 21 19 18 17 18 20 22 22 19 15 11 8 8 7 8
25 26 26 26 26 26 26 25 25 25 24 23 23 23 23 24 23 21 20 21 20 18 15 13 13 13 13 12 12 12 12 14 14 15 14 14 14 14 14 15 15 15 16 16 17 17 17 18 18 17 16 15 15 17 19 20 20 17 14 10 7 6 6
24 25 25 25 25 25 26 26 26 25 24 23 23 23 23 24 24 24 25 25 23 19 15 13 12 12 11 11 11 10 11 12 11 11 11 10 10 10 11 11 12 12 13 13 14 15 16 16 16 15 15 15 15 16 17 18 19 17 15 13 9 6 4
20 22 22 22 23 24 25 26 24 22 21 21 22 22 23 23 24 25 26 25 21 17 14 13 12 12 10 10 9 9 9 9 7 7 7 6 7 7 8 8 9 10 11 13 15 17 18 19 18 17 17 16 16 17 17 18 20 20 18 15 13 11 9
17 18 18 20 22 22 23 21 18 17 19 19 20 21 21 21 22 23 23 22 20 17 15 14 12 11 10 9 8 8 7 6 4 4 4 4 5 6 7 8 9 11 13 15 16 18 20 21 22 22 21 20 19 18 18 18 20 22 22 20 18 16 15
15 15 16 18 19 19 19 19 17 17 18 18 17 18 20 21 22 22 22 21 19 18 17 14 12 11 10 8 8 7 6 4 2 1 0 3 5 6 7 9 10 13 14 15 16 18 20 22 24 24 25 25 23 21 20 19 20 21 23 24 24 23 20
13 14 15 17 17 16 15 16 18 18 17 16 15 15 17 20 21 21 21 21 19 18 17 15 13 12 10 9 8 8 6 4 3 3 3 4 6 7 8 9 12 14 14 15 16 18 21 22 24 25 26 27 27 26 25 23 22 22 22 24 25 25 25
12 14 15 16 17 17 14 11 13 16 16 14 13 13 15 19 21 21 22 23 21 19 18 15 14 13 12 10 10 9 8 6 6 5 5 5 6 7 8 10 12 13 14 15 17 19 21 23 24 25 26 27 28 29 29 28 27 25 24 24 24 25 26
8 12 16 17 17 18 17 11 9 13 15 14 14 16 17 20 20 20 22 23 20 18 17 16 16 15 13 12 12 11 9 8 7 6 5 5 6 7 8 10 11 12 12 14 16 18 20 23 24 25 27 28 28 29 30 31 31 30 28 27 26 25 25
6 8 15 18 16 18 19 15 10 12 16 17 18 20 22 24 24 24 25 25 21 18 17 17 17 16 14 14 14 12 11 9 8 7 6 5 5 6 7 8 9 10 11 13 15 17 19 21 23 25 26 27 28 30 31 32 32 32 32 30 28 27 25
6 6 13 18 16 16 19 17 12 13 19 21 21 23 27 29 30 30 29 26 22 21 19 18 17 16 16 16 15 13 12 10 8 7 6 5 4 4 5 6 8 9 11 12 14 17 18 20 22 23 25 26 27 29 30 31 32 32 32 32 31 29 28

ECMWFFLT1_850_spd_012.txt.gz
Wind_Speed
29 28 28 28 28 29 31 32 31 31 33 35 38 39 39 39 40 42 42 40 38 37 37 36 34 32 30 29 29 27 25 25 25 25 24 24 23 23 23 23 24 27 31 30 29 32 34 33 32 33 33 35 37 35 33 34 33 31 32 33 33 33 32
29 28 28 28 29 29 30 32 32 32 33 35 37 38 38 40 41 42 42 41 39 37 37 36 34 31 30 29 28 26 25 24 24 25 25 24 24 24 24 24 24 25 29 32 32 32 34 33 32 33 35 36 38 38 37 37 35 33 34 34 33 33 33
29 29 29 29 29 29 29 31 33 33 34 35 37 37 38 40 42 43 42 40 39 38 37 36 34 31 29 28 28 26 24 24 24 24 25 24 24 24 24 24 24 25 28 32 34 32 33 34 33 35 37 37 39 39 39 40 38 36 35 34 34 34 35
29 30 30 30 31 30 29 30 33 34 35 35 37 37 36 38 42 43 41 38 38 38 37 36 33 30 28 28 28 25 24 23 24 24 24 25 24 24 25 24 25 27 28 32 34 34 34 34 34 36 38 38 40 40 40 41 40 39 37 35 34 34 37
30 30 32 32 32 31 30 30 32 35 37 37 37 37 36 37 40 42 40 38 37 37 36 35 32 28 27 28 27 25 24 23 23 24 24 24 24 24 25 25 25 27 29 31 34 35 34 33 35 38 38 37 39 41 41 42 41 39 37 35 35 37 41
32 31 33 34 33 31 30 29 31 34 37 38 37 36 37 38 39 41 40 38 37 36 35 34 31 28 28 28 27 25 23 22 22 23 24 24 23 23 24 25 26 28 29 30 32 33 34 34 36 39 39 38 37 38 41 42 42 39 34 32 37 44 49
34 33 34 35 34 32 30 29 30 33 37 39 38 37 38 39 39 40 40 38 36 35 34 33 30 29 28 28 26 24 22 21 21 22 23 23 22 23 24 25 26 27 27 28 29 31 34 35 36 38 40 38 34 34 36 37 36 36 36 38 44 51 54
33 34 33 35 35 33 31 30 30 32 36 39 40 39 39 39 39 39 39 38 36 34 34 33 31 28 27 26 25 23 22 21 20 21 22 22 22 23 23 25 25 24 24 25 28 31 33 35 37 36 36 34 31 32 35 34 33 38 44 49 52 53 52
33 34 33 33 35 34 32 31 31 32 34 38 39 39 39 39 38 38 37 37 36 35 34 34 31 28 27 25 24 23 21 20 20 21 21 21 21 22 23 23 22 21 22 25 28 31 33 35 35 33 30 29 29 32 37 38 39 45 50 52 53 52 49
33 34 31 31 34 34 33 33 31 31 32 34 36 37 37 38 38 37 36 36 36 36 34 33 31 28 26 24 24 23 21 21 21 21 21 20 21 22 21 21 19 19 22 24 27 30 32 35 35 31 29 31 33 36 40 42 44 47 49 50 51 52 47
33 33 30 29 31 33 34 33 32 30 29 31 33 35 35 36 36 35 35 36 36 35 33 32 30 27 26 25 24 22 21 20 20 20 20 19 19 20 19 19 19 20 21 23 27 30 32 34 36 34 34 36 38 40 41 42 43 44 46 46 46 47 46
33 32 29 27 28 31 32 33 32 29 28 28 31 32 33 34 34 34 34 34 35 35 32 31 29 27 26 25 23 21 20 20 20 20 19 18 18 19 19 19 20 20 22 25 28 31 32 33 35 37 37 37 37 38 40 42 41 40 42 41 40 44 50
32 31 28 25 26 28 29 30 30 29 28 27 28 29 30 31 31 32 33 33 34 34 32 30 29 27 26 24 22 21 20 19 19 19 19 19 20 22 22 23 24 24 26 28 30 32 35 35 35 36 36 35 35 37 40 40 39 39 39 40 43 50 56
31 29 27 25 25 25 26 27 28 28 27 26 25 25 28 29 28 28 30 31 32 32 30 30 28 27 25 23 22 20 19 18 18 19 19 19 21 22 22 22 22 22 24 27 29 32 33 32 30 31 33 33 33 34 36 36 38 41 44 48 51 53 53
29 28 27 24 23 23 24 25 26 26 25 24 23 22 26 29 28 26 26 28 30 30 28 28 27 26 24 23 20 19 18 18 17 18 18 18 19 20 20 19 19 19 21 23 24 26 27 27 26 27 28 29 30 32 35 37 41 45 47 50 52 50 49
27 27 26 23 21 22 23 23 23 23 22 21 21 21 25 30 30 28 27 27 28 28 27 26 25 25 24 22 19 17 16 16 16 17 17 18 18 18 18 18 17 17 19 20 20 22 23 24 24 24 26 29 32 34 37 39 42 43 42 45 48 50 49
26 27 24 22 21 20 21 21 20 19 18 18 19 20 24 29 31 30 29 27 25 24 25 25 25 24 23 21 18 16 15 15 16 16 17 17 17 17 18 17 16 16 17 18 19 20 22 23 24 25 27 29 31 32 34 37 40 40 39 41 46 49 49
28 27 24 21 19 19 19 18 16 15 15 15 17 20 24 28 30 30 30 29 25 22 22 24 24 23 21 19 16 14 14 14 14 15 16 16 16 17 17 16 17 17 18 19 20 21 22 23 23 25 26 27 28 29 30 33 36 37 36 39 42 44 48
29 27 23 19 17 16 17 16 14 13 13 14 16 19 24 27 30 30 31 31 28 24 21 22 22 21 20 17 14 14 14 13 14 15 16 16 15 16 17 17 17 18 19 19 19 19 19 19 20 22 24 25 25 26 28 29 32 33 34 36 38 39 42
29 26 22 17 15 14 15 14 12 10 11 12 15 19 23 26 29 31 31 31 29 26 23 22 21 20 18 16 14 14 14 14 13 14 15 15 15 16 17 17 17 18 18 19 18 18 17 18 18 20 21 23 23 24 25 26 27 28 29 32 35 36 37
26 24 20 16 13 13 13 13 10 8 9 12 14 18 22 26 29 31 32 31 29 26 24 22 21 19 17 15 13 13 13 12 11 13 16 16 15 15 16 16 16 17 17 16 15 15 15 16 17 18 20 22 23 23 24 24 24 25 26 29 33 36 37
23 21 19 15 12 12 12 12 10 8 9 12 14 17 22 26 29 30 31 30 29 27 24 21 18 17 14 12 12 12 11 12 14 16 17 16 14 14 14 15 15 14 13 12 12 13 14 16 18 19 21 23 24 24 25 25 24 24 26 28 31 33 36
20 18 16 14 12 11 11 11 11 9 9 12 14 18 22 25 27 28 28 28 28 26 23 19 17 15 12 11 12 14 14 16 17 17 15 14 14 13 13 12 11 9 8 9 10 12 14 16 19 20 22 24 26 26 27 26 25 24 25 27 29 30 32
17 16 14 14 13 11 10 11 11 10 10 12 14 18 22 23 25 27 26 24 23 22 20 18 16 14 13 13 13 15 16 17 16 15 14 13 12 11 9 8 6 5 6 8 10 13 15 17 19 22 24 25 26 28 28 27 26 24 24 26 28 28 28
14 14 13 13 12 11 10 10 11 11 11 12 14 18 22 23 22 25 25 22 20 19 17 16 15 14 14 14 15 16 17 16 14 13 11 10 9 7 5 3 2 4 6 8 10 12 15 18 20 22 24 25 26 27 28 28 26 24 24 25 27 27 24
12 12 12 12 12 11 10 10 11 11 11 13 15 18 23 23 21 22 23 21 18 18 16 15 15 15 15 17 18 17 16 14 12 11 9 7 6 5 2 2 3 4 6 9 11 13 16 18 20 21 22 23 25 27 28 29 29 27 26 26 27 28 25
13 12 12 12 12 11 11 11 12 12 12 14 16 18 23 25 23 21 23 21 19 18 18 17 18 19 19 20 19 15 14 13 11 9 8 6 5 4 4 4 4 6 7 9 12 14 16 17 18 19 21 22 25 27 28 30 31 30 29 28 28 29 29
14 12 12 12 12 11 12 13 13 12 12 15 17 19 23 27 27 24 26 25 22 20 21 22 22 23 22 20 17 14 13 13 10 9 8 7 6 6 5 5 5 7 8 10 12 13 14 16 17 19 20 22 24 26 27 29 30 31 30 30 29 30 32
15 12 11 11 11 11 12 13 12 10 10 13 16 18 22 27 30 28 28 28 25 24 26 26 25 25 22 18 16 15 14 12 10 9 9 9 8 7 6 6 6 8 9 10 11 13 14 16 17 19 20 22 24 26 27 29 30 31 31 31 31 31 31
14 11 11 11 11 11 11 9 6 6 9 12 16 18 19 25 30 30 28 28 27 26 27 26 25 23 20 17 16 16 14 12 11 11 11 10 9 8 6 6 7 8 8 9 11 13 15 17 18 19 21 23 24 25 27 28 29 30 32 33 33 33 32
12 10 10 11 10 10 10 8 7 9 11 13 16 17 18 24 31 31 28 29 29 27 26 26 25 22 19 17 17 16 13 12 12 13 12 11 10 8 7 6 6 7 8 9 11 14 15 17 18 20 22 24 25 25 26 28 29 30 32 33 34 34 34
11 11 11 10 9 8 7 9 11 13 13 14 17 19 18 23 30 31 27 28 30 28 25 25 22 19 18 18 17 15 14 14 14 14 13 12 10 8 7 7 6 6 7 9 11 13 15 16 18 20 22 24 25 26 26 27 29 30 31 32 33 34 34
11 12 12 12 11 8 6 6 10 14 16 16 18 20 20 21 26 29 28 28 29 28 25 23 19 16 16 17 16 15 15 15 15 15 14 12 10 8 7 6 6 6 7 9 11 13 15 16 17 19 22 23 25 27 28 28 29 30 31 32 33 34 34
12 12 11 13 13 9 6 5 6 12 17 17 18 21 22 21 23 26 28 28 28 27 25 23 19 16 16 15 15 15 16 16 16 16 14 12 10 8 7 6 5 6 7 9 11 12 14 15 17 19 21 23 25 26 28 29 30 31 31 32 32 33 34
11 11 8 10 13 11 8 5 4 9 15 18 19 22 23 24 25 27 29 29 28 26 24 22 18 16 16 16 15 16 17 17 17 16 14 12 10 8 7 5 5 5 7 8 10 11 12 14 16 18 20 22 24 26 28 30 31 31 31 31 31 32 33
12 10 6 6 12 13 11 7 4 8 16 19 19 22 25 27 30 31 30 30 29 26 24 21 17 15 16 16 16 17 18 17 17 15 13 11 10 8 7 5 4 4 5 7 8 9 11 12 14 17 19 21 23 25 27 28 29 30 31 31 31 30 31

ECMWFFLT1_850_spd_018.txt.gz
Wind_Speed
21 20 20 21 24 26 26 26 27 27 27 28 30 32 33 33 35 37 39 40 40 41 41 42 42 42 42 43 44 45 47 47 46 43 41 40 39 39 37 34 33 32 27 26 27 27 26 25 24 25 25 25 25 24 23 24 25 25 26 27 28 28 28
22 21 21 19 23 27 28 28 28 28 28 28 30 31 33 34 35 37 38 39 41 42 41 41 43 43 43 43 43 45 47 47 47 44 40 40 39 38 37 35 33 31 30 28 27 26 26 25 25 25 25 25 26 25 23 24 25 26 27 28 28 29 30
22 22 22 21 24 29 29 28 28 28 28 28 29 30 32 35 37 37 37 39 41 42 41 41 43 44 44 43 44 46 47 47 47 45 41 39 39 38 37 36 33 31 30 29 26 25 25 24 25 25 25 25 26 25 24 25 25 26 28 29 29 29 31
23 23 22 21 24 28 28 27 26 26 27 28 29 29 31 33 37 39 38 38 40 41 41 41 43 44 44 44 45 47 48 48 48 46 42 40 39 38 37 35 32 30 29 28 26 24 24 24 24 25 25 25 25 25 25 26 26 27 29 30 30 30 32
23 24 24 23 23 24 25 26 25 26 27 28 29 30 30 31 34 38 40 39 39 40 40 41 43 44 44 44 46 47 48 49 49 47 43 40 38 37 36 34 32 29 28 28 26 24 23 24 25 26 26 25 24 24 25 25 26 28 29 29 30 31 33
25 25 25 25 24 22 24 25 25 27 29 29 30 31 31 31 33 37 39 39 38 39 40 41 43 43 42 44 47 48 48 49 49 47 43 40 38 37 37 34 31 29 28 27 26 24 23 24 25 26 25 23 22 23 23 23 25 27 27 28 30 31 32
28 28 27 26 24 23 23 23 25 28 30 30 30 31 31 32 33 36 38 40 39 39 40 41 42 42 42 44 45 46 47 48 47 45 42 40 39 38 37 34 30 29 28 26 26 25 23 23 24 24 24 23 21 21 21 20 21 22 23 25 27 29 32
29 29 28 26 24 23 23 23 24 28 30 30 30 30 31 32 33 35 38 40 40 40 40 40 41 42 43 42 42 43 44 44 43 42 41 42 40 38 36 33 30 28 27 26 27 25 22 21 20 21 22 20 18 18 19 18 18 18 20 23 26 29 33
29 29 28 26 24 23 24 23 24 27 29 29 29 29 30 32 33 35 37 40 41 41 40 41 41 41 41 40 39 40 41 39 39 39 40 41 40 38 36 32 29 28 27 27 26 23 21 19 19 19 19 17 16 16 16 15 15 18 21 25 28 31 34
29 28 27 26 24 24 25 25 27 29 28 28 30 30 30 32 33 36 38 40 42 42 41 41 41 41 39 38 37 38 37 36 37 37 37 37 37 36 34 31 29 28 28 28 27 24 22 21 21 21 19 17 16 14 13 13 16 20 22 25 28 32 33
28 27 26 26 26 26 26 26 28 29 29 29 29 28 30 33 34 36 39 41 42 43 42 42 42 41 39 36 36 36 35 35 36 36 35 34 31 30 29 29 28 28 28 29 28 26 25 24 23 23 20 18 16 14 14 17 20 22 23 25 28 30 31
27 25 23 24 26 26 26 27 28 29 29 29 28 27 30 35 36 36 39 42 43 44 43 42 42 40 38 36 35 35 35 35 35 35 34 30 27 26 26 27 27 27 27 28 27 26 25 24 23 23 21 20 19 18 19 22 25 24 25 27 28 29 30
26 24 23 24 25 24 24 26 27 28 29 29 31 30 30 35 38 37 39 42 43 44 43 42 41 39 37 35 34 34 35 35 34 34 31 28 27 27 27 26 26 26 26 26 25 24 23 22 23 22 22 23 23 23 25 27 28 28 28 28 28 30 33
23 23 24 25 24 22 23 26 27 28 29 30 33 31 29 34 39 37 38 40 42 42 41 40 39 37 35 34 33 34 34 34 34 33 30 28 28 27 27 27 26 25 24 23 22 21 22 23 24 23 22 24 25 26 29 29 29 29 28 29 31 33 35
21 22 23 22 22 22 24 26 26 27 29 31 31 27 25 32 37 36 35 37 38 38 38 37 36 35 32 30 30 31 32 32 33 32 30 29 28 28 27 27 26 25 24 23 22 22 22 22 22 22 23 25 28 30 31 29 27 27 27 30 34 36 36
20 21 22 21 21 24 26 27 27 27 29 30 26 21 22 29 34 34 32 33 34 35 34 34 33 32 30 27 27 29 29 30 32 32 30 29 27 27 27 27 25 24 22 21 20 20 19 20 22 24 26 28 30 30 28 25 24 24 26 32 36 37 37
20 21 23 23 24 25 27 28 28 27 27 26 21 17 21 27 31 32 30 28 29 30 31 31 30 29 27 25 25 26 27 28 30 31 30 28 27 28 28 25 23 21 20 19 19 20 22 25 27 28 28 27 27 26 24 23 23 23 26 31 35 35 35
22 23 24 24 24 25 26 28 27 25 24 22 16 16 22 26 29 31 29 24 24 26 27 27 26 25 25 23 22 23 25 27 29 30 29 28 29 29 26 23 22 20 19 19 21 25 27 28 27 26 24 23 23 22 21 21 22 22 24 27 29 31 33
23 23 24 24 25 26 26 26 26 24 23 20 15 17 22 26 27 29 30 26 24 24 23 22 23 22 21 20 19 20 23 26 27 28 29 29 29 27 24 22 20 18 19 20 23 25 26 24 23 22 20 19 19 18 18 18 18 19 21 23 25 27 30
22 23 24 25 25 26 25 24 24 24 21 16 15 18 23 26 27 28 30 28 26 24 22 21 21 20 18 18 18 19 22 25 27 29 29 29 27 24 22 19 18 17 19 21 22 23 22 20 19 17 15 14 14 14 14 15 15 17 19 21 22 24 26
21 22 24 24 24 23 22 21 20 19 15 13 16 18 22 25 25 26 28 28 26 24 22 21 21 19 17 18 19 21 24 27 27 27 27 25 23 19 17 16 17 19 20 21 20 19 18 16 14 12 11 10 11 11 12 13 14 16 17 19 21 22 25
22 22 22 22 22 20 17 16 15 12 11 13 17 18 21 23 24 25 25 25 26 25 22 21 20 18 17 19 21 24 28 27 25 24 23 21 18 16 16 17 18 19 19 18 17 16 13 11 11 10 9 8 8 9 11 12 14 15 16 18 19 21 23
22 21 20 20 18 16 13 12 10 8 9 14 18 17 19 21 22 23 23 22 23 22 20 20 19 17 17 20 23 26 28 26 23 22 21 18 17 17 18 18 17 17 16 15 15 13 11 9 9 8 7 7 7 9 10 11 13 15 16 17 18 19 22
21 20 18 17 15 13 10 8 7 6 9 15 19 17 17 19 19 18 18 18 19 19 18 19 18 17 18 22 25 25 25 25 23 20 17 17 17 17 16 15 15 15 14 14 13 13 10 8 7 6 6 6 7 9 10 10 13 15 15 16 18 18 20
20 20 16 14 13 10 7 6 6 7 10 15 20 18 16 17 16 15 14 14 14 15 15 16 16 17 19 23 25 23 23 23 23 19 17 18 17 15 13 12 13 14 14 13 13 12 9 7 6 5 5 5 6 7 9 10 12 14 15 16 17 17 17
18 18 15 12 10 8 6 5 7 9 11 15 20 20 16 14 14 13 12 11 10 11 14 16 17 19 21 23 23 23 24 25 25 24 23 21 16 13 12 12 13 14 14 13 12 10 8 6 5 3 3 3 5 7 9 10 11 13 14 16 17 17 17
18 17 15 12 10 8 7 5 7 10 12 16 20 22 19 14 14 14 13 12 13 15 17 19 19 20 22 24 25 26 28 29 29 28 25 20 15 13 13 13 14 16 15 12 11 9 8 5 4 2 1 3 5 7 9 10 12 13 14 16 17 17 18
18 17 15 13 10 8 8 7 8 11 13 16 19 22 21 17 17 17 16 16 18 19 19 21 23 25 28 29 29 30 30 30 29 26 22 18 15 15 14 15 16 16 14 12 11 9 7 5 3 1 2 4 6 7 9 11 12 14 15 16 17 18 19
17 16 14 13 10 8 8 7 6 9 12 15 17 21 23 21 20 20 18 19 21 22 23 27 30 31 33 32 31 31 31 29 27 24 20 18 16 15 16 17 17 15 14 12 10 9 7 5 3 1 2 4 6 8 10 11 13 14 15 16 18 19 20
16 14 13 12 9 7 7 6 6 8 13 15 16 21 24 22 21 21 20 21 24 25 27 31 33 33 33 33 32 32 31 28 25 22 20 19 17 17 18 19 17 15 14 12 10 8 6 5 3 1 2 4 6 8 10 12 13 14 16 17 18 19 20
16 14 12 9 7 5 6 8 9 10 14 17 17 22 25 22 21 23 23 24 26 27 28 31 33 33 33 32 31 31 30 26 23 21 20 19 18 19 20 18 17 15 14 12 10 8 6 5 2 1 2 5 7 9 11 12 14 16 17 18 19 20 21
17 15 11 8 7 5 3 7 10 10 13 17 19 23 25 23 22 25 25 24 25 27 27 29 32 32 32 32 30 29 27 24 21 20 19 18 20 21 20 18 17 16 14 12 10 8 6 4 2 1 3 5 8 10 12 13 15 17 18 19 20 21 22
19 13 6 5 7 6 3 4 7 8 12 17 20 22 23 22 21 25 26 24 25 26 27 28 29 30 31 31 29 27 24 22 20 19 18 19 21 21 20 18 17 16 14 11 9 7 5 3 1 1 4 6 8 10 12 14 16 17 19 20 21 22 23
18 11 3 4 8 7 3 1 4 7 10 16 19 20 21 21 20 23 25 25 24 25 26 27 27 28 29 28 26 24 22 20 20 19 19 22 23 21 19 19 18 15 13 11 9 7 5 3 1 2 4 7 9 11 13 15 17 19 20 22 23 24 24
16 8 6 8 9 7 4 4 5 8 11 16 18 19 22 24 24 25 27 26 25 24 24 24 24 25 26 26 24 22 20 19 19 19 22 24 23 21 20 19 17 15 13 10 8 6 5 3 2 3 5 7 9 11 13 15 17 19 20 22 24 25 25
14 9 10 10 9 7 6 6 8 10 12 16 18 20 25 28 28 28 29 28 26 24 22 21 22 23 24 24 22 20 19 18 19 20 23 24 22 20 20 18 16 14 12 10 8 7 5 4 4 4 6 8 10 12 13 15 16 18 20 22 23 24 25